Hourly Data Report for September 26, 2017

All times are specified in Local Standard Time (LST). Add 1 hour to adjust for Daylight Saving Time where and when it is observed.

RESOLUTE BAY A
NUNAVUT

74°43'01.000" N
94°58'10.000" W
67.70 m
2403498
71924
YRB

Download Data

Hourly Data (September 2017)
Hourly Data Report for September 26, 2017
Temp Definition
°C
Dew Point Temp Definition
°C
Rel Hum Definition
%
Wind Dir Definition
10's deg

Wind Spd Definition
km/h
Visibility Definition
km
Stn Press Definition
kPa
Hmdx Definition


Wind Chill Definition


Weather Definition


TIME
00:00 Legend Double Dagger -6.7 -7.8 92 21 16 4.0 100.66   -13 Fog
01:00 Legend Double Dagger -6.5 -7.6 92 18 7 1.0 100.65   -10 Fog
02:00 Legend Double Dagger -6.5 -7.6 92 19 10 4.0 100.65   -11 Fog
03:00 Legend Double Dagger -6.0 -7.0 93 15 13 0.6 100.64   -11 Freezing Fog
04:00 Legend Double Dagger -6.0 -7.0 93 16 21 0.8 100.61   -13 Freezing Fog
05:00 Legend Double Dagger -5.8 -6.8 93 16 20 14.5 100.59   -13 LegendNANA
06:00 Legend Double Dagger -6.2 -7.2 93 14 21 6.4 100.55   -13 Fog
07:00 Legend Double Dagger -7.1 -8.2 92 13 30 24.1 100.52   -16 LegendNANA
08:00 Legend Double Dagger -7.2 -8.3 92 13 33 6.4 100.46   -16 Fog
09:00 Legend Double Dagger -6.4 -7.5 92 14 37 8.1 100.40   -16 Fog
10:00 Legend Double Dagger -6.0 -7.1 92 13 40 2.8 100.37   -15 Fog,Blowing Snow
11:00 Legend Double Dagger -6.0 -7.0 93 14 40 2.8 100.31   -15 Fog,Blowing Snow
12:00 Legend Double Dagger -6.1 -7.1 93 14 38 4.8 100.25   -15 Fog,Blowing Snow
13:00 Legend Double Dagger -6.1 -7.1 92 13 30 4.8 100.23   -14 Fog,Blowing Snow
14:00 Legend Double Dagger -6.7 -7.8 92 13 24 12.9 100.23   -14 Ice Crystals
15:00 Legend Double Dagger -6.3 -7.3 92 12 32 16.1 100.15   -15 Mostly Cloudy
16:00 Legend Double Dagger -5.6 -6.6 93 12 31 19.3 100.13   -14 LegendNANA
17:00 Legend Double Dagger -5.6 -6.6 93 12 34 24.1 100.04   -14 LegendNANA
18:00 Legend Double Dagger -5.4 -6.4 92 12 42 24.1 99.97   -15 Cloudy
19:00 Legend Double Dagger -4.5 -5.5 93 12 36 19.3 99.91   -13 Snow
20:00 Legend Double Dagger -3.6 -4.5 94 13 37 4.0 99.85   -12 Snow,Blowing Snow
21:00 Legend Double Dagger -3.3 -4.1 94 13 36 4.0 99.78   -11 Snow,Blowing Snow
22:00 Legend Double Dagger -2.9 -3.6 95 13 38 3.2 99.71   -11 Snow,Blowing Snow
23:00 Legend Double Dagger -2.5 -3.2 95 14 40 3.2 99.64   -11 Snow,Blowing Snow

Notes on Data Quality.

Legend

  • E = Estimated
  • M = Missing
  • NA = Not Available
  • ‡ = Partner data that is not subject to review by the National Climate Archives
Date modified: